Location: La Fredeussais
(48.1780°N, 1.3980°W)
Time: 05:08:57
(UTC+00:00)

ITUPSAT 1 - Pass Details

Date: 30 October 2021
Orbit: 702 x 712 km, 98.6° (Epoch: 06 December)

Event Time Altitude Azimuth Distance (km) Brightness Sun altitude
Rises 06:04:19 0° 144° (SE) 3,080 ? -7.8°
Reaches altitude 10° 06:06:39 10° 137° (SE) 2,165 ? -7.4°
Maximum altitude 06:11:06 42° 67° (ENE) 1,008 ? -6.7°
Drops below altitude 10° 06:15:34 10° 358° (N) 2,180 ? -6.0°
Sets 06:17:55 0° 352° (N) 3,103 ? -5.6°
